timestamp,wind_dir_avg,wind_spd_avg,wind_spd_max_dir,wind_spd_gust,battery_voltage,lat,long
2020-11-21 00:04:01+00:00,232.0,6.41,240.0,7.52,12.41,47.59359,-54.27349
2020-11-21 00:14:01+00:00,233.0,5.88,233.0,6.62,12.41,47.59359,-54.27349
2020-11-21 00:24:01+00:00,237.0,7.01,238.0,8.16,12.41,47.59359,-54.27349
2020-11-21 00:34:01+00:00,239.0,6.73,239.0,8.25,12.41,47.59359,-54.27349
2020-11-21 00:44:01+00:00,244.0,6.96,245.0,7.71,12.41,47.59359,-54.27349
2020-11-21 00:54:01+00:00,247.0,6.62,247.0,7.6,12.41,47.59359,-54.27349
2020-11-21 01:04:01+00:00,242.0,6.38,243.0,7.37,12.41,47.59359,-54.27349
2020-11-21 01:14:01+00:00,236.0,5.18,237.0,6.04,12.41,47.59359,-54.27349
2020-11-21 01:24:01+00:00,235.0,5.31,232.0,6.09,12.41,47.59359,-54.27349
2020-11-21 01:34:01+00:00,231.0,5.26,226.0,6.6,12.41,47.59359,-54.27349
2020-11-21 01:44:01+00:00,237.0,4.19,240.0,5.13,12.41,47.59359,-54.27349
2020-11-21 01:54:01+00:00,246.0,4.23,248.0,4.97,12.41,47.59359,-54.27349
2020-11-21 02:04:01+00:00,250.0,5.02,253.0,6.73,12.41,47.59359,-54.27349
2020-11-21 02:14:01+00:00,235.0,5.45,244.0,6.12,12.41,47.59359,-54.27349
2020-11-21 02:24:01+00:00,245.0,4.8,239.0,6.41,12.41,47.59359,-54.27349
2020-11-21 02:34:01+00:00,238.0,6.23,240.0,7.19,12.41,47.59359,-54.27349
2020-11-21 02:44:01+00:00,233.0,6.66,233.0,7.37,12.41,47.59359,-54.27349
2020-11-21 02:54:01+00:00,237.0,6.96,238.0,7.86,12.41,47.59359,-54.27349
2020-11-21 03:04:01+00:00,244.0,7.8,248.0,8.99,12.41,47.59359,-54.27349
2020-11-21 03:14:01+00:00,254.0,7.56,252.0,8.17,12.41,47.59359,-54.27349
2020-11-21 03:24:01+00:00,251.0,9.15,253.0,10.15,12.41,47.59359,-54.27349
2020-11-21 03:34:01+00:00,252.0,7.2,255.0,8.53,12.41,47.59359,-54.27349
2020-11-21 03:44:01+00:00,252.0,7.72,251.0,8.96,12.41,47.59359,-54.27349
2020-11-21 03:54:01+00:00,246.0,8.47,242.0,9.32,12.41,47.59359,-54.27349
2020-11-21 04:04:01+00:00,249.0,9.06,251.0,10.01,12.41,47.59359,-54.27349
2020-11-21 04:14:01+00:00,256.0,8.75,257.0,9.65,12.41,47.59359,-54.27349
2020-11-21 04:24:01+00:00,263.0,8.21,271.0,10.03,12.41,47.59359,-54.27349
2020-11-21 04:34:01+00:00,254.0,7.29,260.0,8.27,12.41,47.59359,-54.27349
2020-11-21 04:44:01+00:00,249.0,6.75,254.0,7.51,12.41,47.59359,-54.27349
2020-11-21 04:54:01+00:00,247.0,7.4,248.0,8.46,12.41,47.59359,-54.27349
2020-11-21 05:04:01+00:00,253.0,6.9,255.0,7.8,12.41,47.59359,-54.27349
2020-11-21 05:14:01+00:00,248.0,7.27,245.0,8.08,12.33,47.59359,-54.27349
2020-11-21 05:24:01+00:00,248.0,8.46,244.0,9.3,12.33,47.59359,-54.27349
2020-11-21 05:34:01+00:00,250.0,7.7,247.0,8.63,12.33,47.59359,-54.27349
2020-11-21 05:44:01+00:00,251.0,7.26,254.0,8.13,12.33,47.59359,-54.27349
2020-11-21 05:54:01+00:00,262.0,7.41,271.0,8.29,12.33,47.59359,-54.27349
2020-11-21 06:04:01+00:00,267.0,7.13,271.0,7.94,12.33,47.59359,-54.27349
2020-11-21 06:14:01+00:00,269.0,5.32,267.0,6.46,12.33,47.59359,-54.27349
2020-11-21 06:24:01+00:00,262.0,5.55,262.0,6.28,12.33,47.59359,-54.27349
2020-11-21 06:34:01+00:00,250.0,4.08,256.0,4.76,12.33,47.59359,-54.27349
2020-11-21 06:44:01+00:00,271.0,5.15,270.0,5.99,12.33,47.59359,-54.27349
2020-11-21 06:54:01+00:00,268.0,5.38,270.0,6.28,12.33,47.59359,-54.27349
2020-11-21 07:04:01+00:00,258.0,5.79,259.0,6.41,12.33,47.59359,-54.27349
2020-11-21 07:14:01+00:00,245.0,5.09,251.0,5.62,12.33,47.59359,-54.27349
2020-11-21 07:24:01+00:00,231.0,5.09,232.0,5.72,12.33,47.59359,-54.27349
2020-11-21 07:34:01+00:00,226.0,5.22,231.0,6.34,12.33,47.59359,-54.27349
2020-11-21 07:44:01+00:00,223.0,5.29,224.0,6.12,12.33,47.59359,-54.27349
2020-11-21 07:54:01+00:00,217.0,4.97,215.0,5.41,12.33,47.59359,-54.27349
2020-11-21 08:04:01+00:00,230.0,6.03,240.0,7.26,12.33,47.59359,-54.27349
2020-11-21 08:14:01+00:00,233.0,6.4,237.0,7.36,12.33,47.59359,-54.27349
2020-11-21 08:24:01+00:00,226.0,6.23,229.0,6.93,12.33,47.59359,-54.27349
2020-11-21 08:34:01+00:00,218.0,6.11,220.0,6.76,12.33,47.59359,-54.27349
2020-11-21 08:44:01+00:00,216.0,6.7,221.0,8.09,12.33,47.59359,-54.27349
2020-11-21 08:54:01+00:00,233.0,6.41,231.0,7.3,12.33,47.59359,-54.27349
2020-11-21 09:04:01+00:00,228.0,5.51,235.0,6.65,12.33,47.59359,-54.27349
2020-11-21 09:14:01+00:00,221.0,5.53,228.0,6.42,12.33,47.59359,-54.27349
2020-11-21 09:24:01+00:00,219.0,5.52,227.0,6.08,12.33,47.59359,-54.27349
2020-11-21 09:34:01+00:00,209.0,4.98,211.0,5.8,12.33,47.59359,-54.27349
2020-11-21 09:44:01+00:00,205.0,5.8,202.0,6.54,12.33,47.59359,-54.27349
2020-11-21 09:54:01+00:00,206.0,7.41,205.0,8.25,12.33,47.59359,-54.27349
2020-11-21 10:04:01+00:00,209.0,7.01,209.0,7.9,12.33,47.59359,-54.27349
2020-11-21 10:14:01+00:00,209.0,6.56,209.0,7.53,12.33,47.59359,-54.27349
2020-11-21 10:24:01+00:00,215.0,7.01,213.0,7.8,12.33,47.59359,-54.27349
2020-11-21 10:34:01+00:00,217.0,7.3,215.0,8.95,12.33,47.59359,-54.27349
2020-11-21 10:44:01+00:00,214.0,9.21,217.0,9.99,12.33,47.59359,-54.27349
2020-11-21 10:54:01+00:00,214.0,9.74,215.0,10.9,12.33,47.59359,-54.27349
2020-11-21 11:04:01+00:00,217.0,8.08,217.0,9.34,12.33,47.59359,-54.27349
2020-11-21 12:14:01+00:00,227.0,9.43,230.0,10.96,12.41,47.59359,-54.27349
2020-11-21 12:24:01+00:00,226.0,9.13,228.0,10.6,12.41,47.59359,-54.27349
2020-11-21 12:34:01+00:00,227.0,8.53,225.0,9.74,12.41,47.59359,-54.27349
2020-11-21 12:44:01+00:00,231.0,7.63,236.0,9.05,12.41,47.59359,-54.27349
2020-11-21 12:54:01+00:00,226.0,6.99,222.0,8.97,12.41,47.59359,-54.27349
2020-11-21 13:04:01+00:00,203.0,7.76,206.0,9.71,12.41,47.59359,-54.27349
2020-11-21 13:14:01+00:00,206.0,8.78,209.0,9.64,12.65,47.59359,-54.27349
2020-11-21 13:24:01+00:00,210.0,7.48,215.0,9.07,12.65,47.59359,-54.27349
2020-11-21 13:34:01+00:00,206.0,9.65,210.0,10.64,12.65,47.59359,-54.27349
2020-11-21 13:44:01+00:00,213.0,9.1,216.0,11.06,12.65,47.59359,-54.27349
2020-11-21 13:54:01+00:00,213.0,10.42,217.0,11.96,12.65,47.59359,-54.27349
2020-11-21 14:04:01+00:00,208.0,10.95,212.0,12.69,12.65,47.59359,-54.27349
2020-11-21 14:14:01+00:00,214.0,10.87,217.0,12.27,12.73,47.59359,-54.27349
2020-11-21 14:24:01+00:00,217.0,10.81,215.0,12.3,12.73,47.59359,-54.27349
2020-11-21 14:34:01+00:00,219.0,10.16,216.0,12.49,12.73,47.59359,-54.27349
2020-11-21 14:44:01+00:00,215.0,11.17,216.0,13.42,12.73,47.59359,-54.27349
2020-11-21 14:54:01+00:00,217.0,11.02,217.0,12.84,12.73,47.59359,-54.27349
2020-11-21 15:04:01+00:00,216.0,10.58,216.0,12.1,12.73,47.59359,-54.27349
2020-11-21 15:14:01+00:00,223.0,8.72,222.0,10.27,12.73,47.59359,-54.27349
2020-11-21 15:24:01+00:00,223.0,7.74,218.0,9.26,12.73,47.59359,-54.27349
2020-11-21 15:34:01+00:00,221.0,6.42,227.0,7.98,12.73,47.59359,-54.27349
2020-11-21 15:44:01+00:00,226.0,7.62,231.0,8.98,12.73,47.59359,-54.27349
2020-11-21 15:54:01+00:00,216.0,8.26,220.0,9.56,12.73,47.59359,-54.27349
2020-11-21 16:04:01+00:00,213.0,8.28,212.0,9.39,12.73,47.59359,-54.27349
2020-11-21 16:14:01+00:00,219.0,8.77,227.0,11.45,13.6,47.59359,-54.27349
2020-11-21 16:24:01+00:00,232.0,8.63,231.0,10.59,13.6,47.59359,-54.27349
2020-11-21 16:34:01+00:00,237.0,7.56,235.0,9.09,13.6,47.59359,-54.27349
2020-11-21 16:44:01+00:00,242.0,7.04,241.0,8.57,13.6,47.59359,-54.27349
2020-11-21 16:54:01+00:00,249.0,10.0,253.0,11.71,13.6,47.59359,-54.27349
2020-11-21 17:04:01+00:00,262.0,10.78,260.0,12.49,13.6,47.59359,-54.27349
2020-11-21 17:14:01+00:00,256.0,12.88,264.0,15.6,14.32,47.59359,-54.27349
2020-11-21 17:24:01+00:00,261.0,10.31,265.0,11.77,14.32,47.59359,-54.27349
2020-11-21 17:34:01+00:00,263.0,9.92,257.0,11.42,14.32,47.59359,-54.27349
2020-11-21 17:44:01+00:00,262.0,10.17,264.0,11.74,14.32,47.59359,-54.27349
2020-11-21 17:54:01+00:00,261.0,8.34,261.0,10.12,14.32,47.59359,-54.27349
2020-11-21 18:04:01+00:00,265.0,10.25,268.0,11.38,14.32,47.59359,-54.27349
2020-11-21 18:14:01+00:00,265.0,8.97,270.0,9.57,14.0,47.59359,-54.27349
2020-11-21 18:24:01+00:00,269.0,8.43,284.0,9.88,14.0,47.59359,-54.27349
2020-11-21 18:34:01+00:00,262.0,8.72,261.0,9.26,14.0,47.59359,-54.27349
2020-11-21 18:44:01+00:00,259.0,9.6,259.0,10.71,14.0,47.59359,-54.27349
2020-11-21 18:54:01+00:00,256.0,9.41,267.0,11.23,14.0,47.59359,-54.27349
2020-11-21 19:04:01+00:00,248.0,8.28,248.0,10.52,14.0,47.59359,-54.27349
2020-11-21 19:14:01+00:00,250.0,10.01,248.0,11.52,13.92,47.59359,-54.27349
2020-11-21 19:24:01+00:00,255.0,11.37,251.0,13.41,13.92,47.59359,-54.27349
2020-11-21 19:34:01+00:00,246.0,10.17,244.0,12.0,13.92,47.59359,-54.27349
2020-11-21 19:44:01+00:00,259.0,11.04,261.0,13.29,13.92,47.59359,-54.27349
2020-11-21 19:54:01+00:00,259.0,11.89,263.0,14.08,13.92,47.59359,-54.27349
2020-11-21 20:04:01+00:00,244.0,9.45,247.0,11.35,13.92,47.59359,-54.27349
2020-11-21 20:14:01+00:00,249.0,9.36,257.0,11.73,12.81,47.59359,-54.27349
2020-11-21 20:24:01+00:00,257.0,9.3,256.0,11.78,12.81,47.59359,-54.27349
2020-11-21 20:34:01+00:00,248.0,9.34,243.0,10.28,12.81,47.59359,-54.27349
2020-11-21 20:44:01+00:00,248.0,9.36,247.0,10.86,12.81,47.59359,-54.27349
2020-11-21 20:54:01+00:00,237.0,9.23,234.0,10.41,12.81,47.59359,-54.27349
2020-11-21 21:04:01+00:00,241.0,10.3,243.0,11.62,12.81,47.59359,-54.27349
2020-11-21 21:14:01+00:00,246.0,9.8,248.0,11.37,12.73,47.59359,-54.27349
2020-11-21 21:24:01+00:00,247.0,9.8,246.0,11.08,12.73,47.59359,-54.27349
2020-11-21 21:34:01+00:00,240.0,9.15,237.0,10.62,12.73,47.59359,-54.27349
2020-11-21 21:44:01+00:00,247.0,9.97,252.0,13.14,12.73,47.59359,-54.27349
2020-11-21 21:54:01+00:00,243.0,10.12,238.0,11.22,12.73,47.59359,-54.27349
2020-11-21 22:04:01+00:00,241.0,11.23,241.0,13.16,12.73,47.59359,-54.27349
2020-11-21 22:14:01+00:00,246.0,10.68,248.0,12.41,12.65,47.59359,-54.27349
2020-11-21 22:24:01+00:00,248.0,11.84,249.0,13.08,12.65,47.59359,-54.27349
2020-11-21 22:34:01+00:00,249.0,12.44,252.0,14.12,12.65,47.59359,-54.27349
2020-11-21 22:44:01+00:00,248.0,11.65,250.0,14.02,12.65,47.59359,-54.27349
2020-11-21 22:54:01+00:00,250.0,11.97,245.0,13.95,12.65,47.59359,-54.27349
2020-11-21 23:04:01+00:00,254.0,11.07,248.0,13.07,12.65,47.59359,-54.27349
2020-11-21 23:14:01+00:00,249.0,12.16,252.0,14.0,12.65,47.59359,-54.27349
2020-11-21 23:24:01+00:00,251.0,12.34,255.0,14.5,12.65,47.59359,-54.27349
2020-11-21 23:34:01+00:00,254.0,13.65,257.0,16.81,12.65,47.59359,-54.27349
2020-11-21 23:44:01+00:00,262.0,15.37,263.0,17.59,12.65,47.59359,-54.27349
2020-11-21 23:54:01+00:00,271.0,13.65,281.0,16.66,12.65,47.59359,-54.27349
